TimeCST,TemperatureF,Dew PointF,Humidity,Sea Level PressureIn,VisibilityMPH,Wind Direction,Wind SpeedMPH,Gust SpeedMPH,PrecipitationIn,Events,Conditions,WindDirDegrees,DateUTC
12:05 AM,50.0,50.0,100,29.76,10.0,SSW,13.8,-,N/A,,Mostly Cloudy,200,2013-01-11 06:05:00
12:36 AM,50.0,50.0,100,29.77,10.0,SW,13.8,-,N/A,,Overcast,220,2013-01-11 06:36:00
12:55 AM,50.0,50.0,100,29.77,10.0,SW,17.3,-,N/A,,Overcast,220,2013-01-11 06:55:00
1:39 AM,50.0,50.0,100,29.79,10.0,SSW,16.1,-,N/A,,Overcast,210,2013-01-11 07:39:00
1:55 AM,49.6,49.6,100,29.79,10.0,SSW,15.0,-,N/A,,Overcast,210,2013-01-11 07:55:00
2:36 AM,50.0,50.0,100,29.78,10.0,SSW,10.4,-,N/A,,Overcast,210,2013-01-11 08:36:00
2:55 AM,49.1,49.1,100,29.78,10.0,SSW,13.8,-,N/A,,Overcast,210,2013-01-11 08:55:00
3:24 AM,48.2,48.2,100,29.77,9.0,SSW,10.4,-,N/A,,Overcast,200,2013-01-11 09:24:00
3:55 AM,49.1,49.1,100,29.78,8.0,SSW,17.3,-,N/A,,Overcast,210,2013-01-11 09:55:00
3:58 AM,50.0,50.0,100,29.77,6.0,SSW,15.0,-,N/A,,Overcast,210,2013-01-11 09:58:00
4:09 AM,48.2,48.2,100,29.77,6.0,SSW,15.0,-,N/A,,Overcast,210,2013-01-11 10:09:00
4:55 AM,49.1,49.1,100,29.77,7.0,SSW,13.8,-,N/A,,Overcast,200,2013-01-11 10:55:00
5:11 AM,50.0,50.0,100,29.76,8.0,SSW,13.8,-,N/A,,Overcast,200,2013-01-11 11:11:00
5:31 AM,50.0,50.0,100,29.77,9.0,SSW,13.8,-,N/A,,Overcast,200,2013-01-11 11:31:00
5:55 AM,49.3,49.3,100,29.76,8.0,South,13.8,-,N/A,,Overcast,190,2013-01-11 11:55:00
5:57 AM,50.0,50.0,100,29.76,9.0,South,13.8,-,N/A,,Overcast,190,2013-01-11 11:57:00
6:08 AM,50.0,50.0,100,29.77,10.0,South,11.5,-,N/A,,Overcast,190,2013-01-11 12:08:00
6:43 AM,50.0,50.0,100,29.77,10.0,South,11.5,-,N/A,,Overcast,180,2013-01-11 12:43:00
6:55 AM,49.3,49.3,100,29.77,10.0,South,12.7,-,N/A,,Overcast,180,2013-01-11 12:55:00
7:34 AM,50.0,50.0,100,29.76,10.0,South,11.5,-,N/A,,Overcast,180,2013-01-11 13:34:00
7:55 AM,48.9,48.9,100,29.75,10.0,South,13.8,-,N/A,,Mostly Cloudy,180,2013-01-11 13:55:00
8:42 AM,48.2,48.2,100,29.73,10.0,South,15.0,-,N/A,,Mostly Cloudy,180,2013-01-11 14:42:00
8:55 AM,48.9,48.9,100,29.75,10.0,South,16.1,-,N/A,,Overcast,180,2013-01-11 14:55:00
9:55 AM,52.0,51.6,99,29.73,10.0,SSW,21.9,28.8,0.01,,Clear,200,2013-01-11 15:55:00
10:55 AM,54.1,49.8,85,29.73,10.0,SSW,21.9,31.1,N/A,,Mostly Cloudy,200,2013-01-11 16:55:00
11:55 AM,55.8,48.4,76,29.67,10.0,South,20.7,-,N/A,,Mostly Cloudy,190,2013-01-11 17:55:00
12:55 PM,59.4,48.6,67,29.66,10.0,SSW,24.2,-,N/A,,Mostly Cloudy,210,2013-01-11 18:55:00
1:55 PM,62.1,49.8,64,29.65,10.0,SSW,19.6,28.8,N/A,,Partly Cloudy,200,2013-01-11 19:55:00
2:55 PM,60.8,46.8,60,29.64,10.0,SSW,18.4,27.6,N/A,,Partly Cloudy,200,2013-01-11 20:55:00
3:55 PM,61.2,47.5,61,29.63,10.0,South,15.0,-,N/A,,Partly Cloudy,180,2013-01-11 21:55:00
4:55 PM,60.3,46.9,61,29.62,10.0,South,16.1,-,N/A,,Mostly Cloudy,180,2013-01-11 22:55:00
5:55 PM,59.9,45.5,59,29.64,10.0,South,19.6,-,N/A,,Overcast,180,2013-01-11 23:55:00
6:55 PM,59.4,45.1,59,29.65,10.0,South,17.3,-,N/A,,Mostly Cloudy,190,2013-01-12 00:55:00
7:55 PM,56.8,45.3,65,29.66,10.0,South,13.8,-,N/A,,Partly Cloudy,180,2013-01-12 01:55:00
8:55 PM,58.3,45.5,62,29.68,10.0,SSW,18.4,-,N/A,,Overcast,200,2013-01-12 02:55:00
9:55 PM,57.7,45.1,63,29.69,10.0,SSW,18.4,-,N/A,,Scattered Clouds,200,2013-01-12 03:55:00
10:55 PM,56.7,45.5,66,29.70,10.0,SSW,16.1,-,N/A,,Partly Cloudy,200,2013-01-12 04:55:00
11:55 PM,56.5,45.9,68,29.72,10.0,SW,16.1,-,N/A,,Mostly Cloudy,220,2013-01-12 05:55:00